This demonstration page uses our WeatherBlox Daily Observations layout. Learn more.

Hourly Observations for June 18, 2019

Temp ( °F °C ) Dew Point ( °F °C ) Humidity (%) Winds ( mph kmh ) Pressure ( in mb ) Visibility ( mi km ) Precip ( " mm )
12:15 am 00:15 Cloudy with Rain 61 16.1 61 16.1 100 100 Calm 30 1016 7 11.265408 0.02 0.508
12:35 am 00:35 Cloudy with Rain 61 16 61 16 100 100 Calm 30 1016 5 8.04672 0.06 1.524
12:55 am 00:55 Cloudy with Rain 61 16 61 16 100 100 N 5 7 30 1016 7 11.265408 0.08 2.032
1:15 am 01:15 Cloudy with Light Rain 61 16.1 61 16.1 100 100 N 5 7 30 1016 7 11.265408 0 0
1:30 am 01:30 Cloudy with Drizzle 61 16 61 16 100 100 NE 5 7 30 1016 10 16.09344 0 0
1:55 am 01:55 Cloudy with Light Drizzle 61 16 61 16 100 100 NNE 6 9 30 1016 10 16.09344 0 0
2:15 am 02:15 Cloudy with Light Rain 60 15.7 60 15.6 99 99 Calm 30 1016 10 16.09344 0 0
2:35 am 02:35 Cloudy with Light Rain 60 15.6 60 15.6 100 100 NNE 3 6 30 1016 10 16.09344 0.02 0.508
2:55 am 02:55 Cloudy with Light Rain 60 15.5 60 15.5 100 100 NNE 5 7 29.97 1015 10 16.09344 0.04 1.016
3:15 am 03:15 Cloudy with Light Drizzle 60 15.5 60 15.5 100 100 NNE 8 13 29.97 1015 10 16.09344 0 0
3:35 am 03:35 Mostly Cloudy 60 15.5 60 15.5 100 100 NE 3 6 29.97 1015 10 16.09344 0 0
3:55 am 03:55 Cloudy 60 15.5 60 15.5 100 100 Calm 29.97 1015 10 16.09344 0 0
4:15 am 04:15 Cloudy 60 15.6 60 15.5 99 99 Calm 29.97 1015 10 16.09344 0 0
4:35 am 04:35 Mostly Cloudy 60 15.5 60 15.5 100 100 NE 3 6 29.97 1015 10 16.09344 0 0
4:55 am 04:55 Cloudy 60 15.7 60 15.6 99 99 Calm 30 1016 10 16.09344 0 0
5:15 am 05:15 Cloudy with Drizzle 61 16 60 15.8 99 99 Calm 30 1016 10 16.09344 0 0
5:35 am 05:35 Cloudy with Light Rain 61 16 61 16 100 100 Calm 30 1016 5 8.04672 0.01 0.254
5:55 am 05:55 Cloudy with Rain 61 16 61 16 100 100 SSE 3 6 30 1016 5 8.04672 0.04 1.016
6:15 am 06:15 Cloudy with Heavy Rain 61 16 61 16 100 100 SSE 3 6 30 1016 3 4.828032 0.05 1.27
6:35 am 06:35 Cloudy with Rain 61 15.9 61 15.9 100 100 Calm 30 1016 3 4.828032 0.1 2.54
6:55 am 06:55 Cloudy with Rain 60 15.7 60 15.7 100 100 NNE 3 6 30 1016 2 3.218688 0.16 4.064
7:15 am 07:15 Cloudy with Rain 61 15.9 61 15.9 100 100 NNE 5 7 29.97 1015 2 3.218688 0.03 0.762
7:35 am 07:35 Cloudy with Light Rain 61 16 61 16 100 100 NE 6 9 29.97 1015 3 4.828032 0.06 1.524
7:55 am 07:55 Cloudy with Light Rain 61 16 61 16 100 100 NE 7 11 29.97 1015 3 4.828032 0.08 2.032
8:15 am 08:15 Cloudy with Light Rain 60 15.7 60 15.7 100 100 NE 8 13 29.97 1015 3 4.828032 0.02 0.508
8:35 am 08:35 Cloudy with Rain 60 15.6 60 15.6 100 100 NNE 7 11 29.97 1015 3 4.828032 0.05 1.27
8:55 am 08:55 Cloudy with Light Rain 60 15.6 60 15.6 100 100 NNE 6 9 29.97 1015 3 4.828032 0.08 2.032
9:15 am 09:15 Cloudy with Light Rain 60 15.7 60 15.6 99 99 NNE 8 13 29.97 1015 4 6.437376 0.01 0.254
9:35 am 09:35 Cloudy with Light Rain 60 15.7 60 15.6 99 99 NNE 9 15 29.97 1015 4 6.437376 0.03 0.762
9:55 am 09:55 Cloudy with Light Rain 61 16 61 15.9 99 99 NNE 6 9 29.97 1015 4 6.437376 0.03 0.762
10:15 am 10:15 Cloudy with Light Rain 61 16.1 61 16 99 99 NNE 8 13 29.97 1015 5 8.04672 0 0
10:35 am 10:35 Cloudy with Light Rain 62 16.4 61 16.3 99 99 NNE 6 9 29.97 1015 5 8.04672 0.01 0.254
10:55 am 10:55 Cloudy with Light Rain 62 16.5 61 16.1 98 98 NNE 8 13 29.94 1014 5 8.04672 0.01 0.254
11:15 am 11:15 Cloudy with Light Rain 62 16.8 62 16.6 99 99 NNE 6 9 29.94 1014 4 6.437376 0.01 0.254
11:35 am 11:35 Cloudy with Light Rain 63 17.1 62 16.7 98 98 NNE 7 11 29.94 1014 5 8.04672 0.02 0.508
11:55 am 11:55 Cloudy with Light Rain 63 17.4 62 16.9 97 97 NNE 6 9 29.94 1014 5 8.04672 0.03 0.762
12:15 pm 12:15 Cloudy with Light Rain 64 17.5 62 16.9 96 96 NE 6 9 29.94 1014 5 8.04672 0.02 0.508
12:35 pm 12:35 Cloudy with Rain 64 17.6 63 17.1 97 97 NE 7 11 29.94 1014 5 8.04672 0.04 1.016
12:55 pm 12:55 Cloudy with Light Rain 64 17.6 63 17.2 98 98 NNE 6 9 29.94 1014 5 8.04672 0.05 1.27
1:15 pm 13:15 Cloudy with Light Rain 64 17.5 62 16.9 96 96 NNE 6 9 29.94 1014 7 11.265408 0.01 0.254
1:35 pm 13:35 Cloudy with Rain 64 17.5 63 17.2 98 98 NE 6 9 29.94 1014 5 8.04672 0.04 1.016
1:55 pm 13:55 Cloudy with Rain 64 17.7 63 17.2 97 97 NE 6 9 29.94 1014 5 8.04672 0.06 1.524
2:15 pm 14:15 Cloudy with Heavy Rain 64 17.5 63 17.1 98 98 NNE 5 7 29.91 1013 3 4.828032 0.05 1.27
2:35 pm 14:35 Cloudy with Light Rain 64 17.5 63 17.1 98 98 E 8 13 29.91 1013 7 11.265408 0.06 1.524
2:55 pm 14:55 Cloudy with Light Rain 64 17.6 63 17.1 97 97 ENE 8 13 29.91 1013 10 16.09344 0.06 1.524
3:15 pm 15:15 Cloudy with Light Rain 64 17.5 63 17 97 97 ENE 10 17 29.91 1013 7 11.265408 0 0
3:35 pm 15:35 Cloudy 65 18.2 63 17.4 95 95 E 8 13 29.91 1013 10 16.09344 0 0
3:55 pm 15:55 Cloudy 65 18.6 63 17.3 92 92 ENE 9 15 29.91 1013 10 16.09344 0 0
4:15 pm 16:15 Cloudy 65 18.5 63 17.2 92 92 E 12 19 29.91 1013 10 16.09344 0 0
4:35 pm 16:35 Cloudy 65 18.6 63 17.3 92 92 ENE 12 19 29.88 1012 10 16.09344 0 0
4:55 pm 16:55 Cloudy 65 18.5 63 17.2 92 92 NE 14 22 29.88 1012 10 16.09344 0 0
5:15 pm 17:15 Cloudy 65 18.2 63 17 93 93 NE 13 20 29.88 1012 10 16.09344 0 0
5:35 pm 17:35 Cloudy 62 16.8 61 16.2 96 96 NE 9 15 29.91 1013 10 16.09344 0 0
5:55 pm 17:55 Cloudy 61 16.3 61 16 98 98 NE 12 19 29.91 1013 7 11.265408 0 0
6:15 pm 18:15 Cloudy 61 16.3 60 15.6 96 96 NE 12 19 29.91 1013 10 16.09344 0 0
6:35 pm 18:35 Cloudy 61 16.2 60 15.5 96 96 ENE 13 20 29.91 1013 10 16.09344 0 0
6:55 pm 18:55 Cloudy 60 15.7 59 14.9 95 95 ENE 13 20 29.94 1014 10 16.09344 0 0
7:15 pm 19:15 Cloudy 61 16 59 15 94 94 ENE 12 19 29.88 1012 10 16.09344 0 0
7:35 pm 19:35 Cloudy 60 15.8 58 14.7 93 93 ENE 12 19 29.91 1013 10 16.09344 0 0
7:55 pm 19:55 Cloudy 60 15.7 58 14.6 93 93 NE 8 13 29.94 1014 10 16.09344 0 0
8:15 pm 20:15 Cloudy 60 15.5 58 14.5 94 94 NE 8 13 29.94 1014 10 16.09344 0 0
8:35 pm 20:35 Cloudy 60 15.5 58 14.6 94 94 NE 8 13 29.94 1014 10 16.09344 0 0
8:55 pm 20:55 Cloudy 60 15.3 58 14.5 95 95 NE 8 13 29.91 1013 10 16.09344 0 0
9:15 pm 21:15 Cloudy 59 15 58 14.2 95 95 NE 6 9 29.94 1014 10 16.09344 0 0
9:35 pm 21:35 Cloudy 58 14.4 57 13.9 97 97 Calm 29.94 1014 10 16.09344 0 0
9:55 pm 21:55 Cloudy 57 13.8 56 13.5 98 98 ENE 3 6 29.94 1014 10 16.09344 0 0
10:15 pm 22:15 Cloudy 57 13.7 56 13.6 99 99 ENE 3 6 29.94 1014 10 16.09344 0 0
10:35 pm 22:35 Cloudy 57 13.9 56 13.6 98 98 E 6 9 29.94 1014 10 16.09344 0 0
10:55 pm 22:55 Cloudy 58 14.2 57 14 99 99 E 5 7 29.91 1013 10 16.09344 0 0
11:15 pm 23:15 Cloudy 58 14.2 57 14 99 99 ENE 6 9 29.91 1013 10 16.09344 0 0
11:35 pm 23:35 Cloudy 58 14.2 57 14 99 99 E 5 7 29.91 1013 10 16.09344 0 0
11:55 pm 23:55 Cloudy 58 14.3 57 14.1 99 99 Calm 29.91 1013 10 16.09344 0 0

Powered by AerisWeather